This demonstration page uses our WeatherBlox Daily Observations layout. Learn more.

36.17497, -115.13722

Hourly Observations for April 3, 2015

Temp ( °F °C ) Dew Point ( °F °C ) Humidity (%) Winds ( mph kmh ) Pressure ( in mb ) Visibility ( mi km ) Precip ( " mm )
12:53 am 00:53 Clear 60 15.6 7 -13.9 12 12 ENE 8 13 30.18 1022 10 16.0934 0 0
1:53 am 01:53 Clear 58 14.4 7 -13.9 13 13 E 10 17 30.19 1022 10 16.0934 0 0
2:53 am 02:53 Clear 57 13.9 6 -14.4 13 13 E 12 19 30.19 1023 10 16.0934 0 0
3:53 am 03:53 Clear 56 13.3 3 -16.1 11 11 E 9 15 30.21 1023 10 16.0934 0 0
4:53 am 04:53 Clear 56 13.3 -2 -18.9 9 9 ENE 6 9 30.23 1024 10 16.0934 0 0
5:53 am 05:53 Clear 56 13.3 -6 -21.1 7 7 NE 10 17 30.24 1024 10 16.0934 0 0
6:53 am 06:53 Sunny 56 13.3 -6 -21.1 7 7 VRB 3 6 30.27 1025 10 16.0934 0 0
7:53 am 07:53 Sunny 56 13.3 2 -16.7 11 11 SSW 8 13 30.29 1026 10 16.0934 0 0
8:53 am 08:53 Sunny 60 15.6 -5 -20.6 7 7 undefined N/A 30.3 1026 10 16.0934 0 0
9:53 am 09:53 Sunny 62 16.7 -5 -20.6 6 6 ENE 14 22 30.3 1026 10 16.0934 0 0
10:53 am 10:53 Sunny 63 17.2 -8 -22.2 5 5 E 9 15 30.29 1026 10 16.0934 0 0
11:53 am 11:53 Sunny 65 18.3 -9 -22.8 5 5 E 12 19 30.27 1025 10 16.0934 0 0
12:53 pm 12:53 Sunny 66 18.9 -9 -22.8 4 4 ENE 6 9 30.24 1024 10 16.0934 0 0
1:53 pm 13:53 Sunny 67 19.4 -10 -23.3 4 4 SSE 7 11 30.21 1023 10 16.0934 0 0
2:53 pm 14:53 Sunny 68 20 -10 -23.3 4 4 SE 9 15 30.17 1022 10 16.0934 0 0
3:53 pm 15:53 Sunny 69 20.6 -10 -23.3 4 4 SSE 7 11 30.13 1020 10 16.0934 0 0
4:53 pm 16:53 Sunny 70 21.1 -10 -23.3 4 4 SSE 7 11 30.11 1020 10 16.0934 0 0
5:53 pm 17:53 Sunny 70 21.1 -11 -23.9 3 3 S 3 6 30.09 1019 10 16.0934 0 0
6:53 pm 18:53 Sunny 68 20 -11 -23.9 4 4 Calm 30.08 1019 10 16.0934 0 0
7:53 pm 19:53 Clear 66 18.9 -9 -22.8 4 4 Calm 30.09 1019 10 16.0934 0 0
8:53 pm 20:53 Clear 66 18.9 -10 -23.3 4 4 Calm 30.09 1019 10 16.0934 0 0
9:53 pm 21:53 Clear 60 15.6 9 -12.8 13 13 WNW 6 9 30.09 1019 10 16.0934 0 0
10:53 pm 22:53 Clear 59 15 10 -12.2 14 14 WNW 6 9 30.1 1019 10 16.0934 0 0
11:53 pm 23:53 Clear 55 12.8 11 -11.7 17 17 N 3 6 30.1 1019 10 16.0934 0 0

Powered by AerisWeather